Weather in Vurmankasy

Russia / Chuvash Republic     55°32′47″N   46°50′50″E
temp.,
°C
wind,
m/s
gust,
m/s
humid.,
%
clouds,
%
prec.,
mm/h
press.,
hPa
HPBL,
m
7 march, sun
sun700:00−15wsw239737 0.0 101225
03:00−15wsw239855 0.1 101242
06:00−15sw339977 0.0 101171
09:00−12sw479583 0.1 1010263
12:00−8ssw598996 0.1 1008609
15:00−7ssw6128598 0.1 1004809
18:00−7ssw71393100 1.1 1000950
21:00−6ssw61394100 2.2 997931
8 march, mon
mon800:00−5ssw61393100 1.0 992804
03:00−4ssw61395100 2.6 990861
06:00−7wsw91691100 0.6 990923
09:00−8w8157690 0.8 994853
12:00−5wsw6108457 0.0 997985
15:00−5wsw698277 0.1 999989
18:00−8sw239493 0.0 100068
21:00−8se239797 0.5 100191
9 march, tue
tue900:00−8nnw3696100 2.5 1001243
03:00−13wnw3697100 3.0 1003130
06:00−17wnw239982 0.0 100639
09:00−13nw359591 0.1 1008266
12:00−10nw358999 0.1 1010550
15:00−10nw458899 0.1 1011640
18:00−13wnw2596100 0.1 101295
21:00−16nnw3597100 0.2 1014119
10 march, wed
wed1000:00−20nnw339986 0.1 101460
03:00−21nnw359989 0.1 101699
06:00−23nnw379899 0.1 1018196
09:00−23nnw469699 0.1 1019283
12:00−20nnw469180 0.0 1021454
15:00−19nnw479085 0.0 1022549
18:00−23nw339692 0.0 102341
21:00−24wnw339946 0.0 102453
11 march, thu
thu1100:00−25w359830 0.0 102483
03:00−24wsw3610044 0.0 1024133
06:00−23w41099100 0.0 1024211
09:00−19w51096100 0.1 1024324
12:00−13w6128893 0.0 1023439
15:00−10wnw6128392 0.0 1024552
18:00−12w51287100 0.0 1024414
21:00−14w41189100 0.0 1026268